LiveATC.Net - Listen to live air traffic control over the Internet!


ICAO: N57  IATA: N57   Airport: New Garden Airport
City: Toughkenamon   State/Province: Pennsylvania
Country: United States   Continent: North America
KMQS METAR Weather: KMQS 060915Z AUTO 00000KT 1 3/4SM BR CLR 22/22 A2988 RMK AO2
N57 Flight Activity (FlightAware)
N57 Airport Info   (iFlightPlanner)
N57 VFR Sectional Chart   (iFlightPlanner) 
N57 IFR Low Altitude Chart   (iFlightPlanner) 
N57 IFR High Altitude Chart   (iFlightPlanner) 

N57 CTAF
Feed Status: UP   Listeners: 0
Listen in your browser - HTML5 player (in browser, HTML5)
Click here to listen with your own player (launches your MP3 player)
Archive Access: N57 CTAF
FacilityFrequency
New Garden CTAF123.050

NOTICE

Unauthorized use prohibited. See LiveATC.net Terms of Service


Airport/ARTCC Code
Frequency Search
(e.g., 124.400, 128.75)
Site-wide search
 


Browse Feeds
Top 50 Feeds
HF Oceanic Feeds
Coverage Map
Bad Weather Areas

LiveATC FAQ
Offer LiveATC feed
Contact LiveATC.net
Press Inquiries

LiveATC on iPhone
LiveATC on Android

LiveATC Mobile
(Mobile browser)

ATC Audio Archives
Interesting Recordings

LiveATC Forums


Home Page
About LiveATC.net


Terms of Use
Privacy Policy

AIRMETs/SIGMETs

FAA Airport Status
NAS Status
Arrival Demand


Server Software By:
Icecast.org
Liquidsoap